Change the Weather History Date:

Monday, July 15, 2013

  Actual Average Record
Temperature  
Mean Temperature 75 °F 83 °F  
Max Temperature 83 °F 93 °F 111 °F (1936)
Min Temperature 66 °F 73 °F 54 °F (1967)
Cooling Degree Days 10 18  
Month to date cooling degree days 242 260  
Year to date cooling degree days 865 873  
Since 1 June cooling degree days 673 639  
Growing Degree Days 24 (Base 50)    
Moisture  
Dew Point 64 °F    
Average Humidity 74    
Maximum Humidity 93    
Minimum Humidity 55    
Precipitation  
Precipitation 0.35 in 0.12 in 3.91 in (1961)
Month to date precipitation 0.38 1.77  
Year to date precipitation 15.95 22.99  
Sea Level Pressure  
Sea Level Pressure 30.08 in    
Wind  
Wind Speed 8 mph (WNW)    
Max Wind Speed 24 mph    
Max Gust Speed 33 mph    
Visibility 10 miles    
Events Rain , Thunderstorm    
T = Trace of Precipitation, MM = Missing Value Source: NWS Daily Summary

Daily Weather History Graph

Daily Weather History Graph

Search for Another Location

Airport or City:

Trip Planner

Search our weather history database for the weather conditions in past years. The results will help you decide how hot, cold, wet, or windy it might be!

Date:

Astronomy

Jul. 15, 2013 Rise Set
Actual Time 6:18 AM CDT 8:40 PM CDT
Civil Twilight 5:48 AM CDT 9:10 PM CDT
Nautical Twilight 5:12 AM CDT 9:46 PM CDT
Astronomical Twilight 4:32 AM CDT 10:26 PM CDT
Moon 1:23 PM CDT (7/15) 12:07 AM CDT (7/15)
Length of Visible Light 15h 21m
Length of Day
14h 22m
Waxing Crescent, 45% of the Moon is Illuminated
Jul 15
Waxing Crescent
Jul 15
First Quarter
Jul 22
Full
Jul 29
Last Quarter
Aug 6
New

Hourly Weather History & Observations

Time (CDT) Temp. Heat Index Dew Point Humidity Pressure Visibility Wind Dir Wind Speed Gust Speed Precip Events Conditions
12:21 AM 73.9 °F - 62.1 °F 66% 30.03 in 10.0 mi West 8.1 mph - N/A Thunderstorm Thunderstorm
12:53 AM 73.9 °F - 62.1 °F 66% 30.03 in 10.0 mi NNW 4.6 mph - N/A Thunderstorm Thunderstorm
1:10 AM 72.0 °F - 63.0 °F 73% 30.05 in 10.0 mi NNW 4.6 mph - N/A   Scattered Clouds
1:53 AM 71.1 °F - 63.0 °F 75% 30.01 in 10.0 mi WNW 5.8 mph - N/A   Mostly Cloudy
2:50 AM 71.6 °F - 62.6 °F 73% 30.04 in 10.0 mi West 8.1 mph - N/A Thunderstorm Thunderstorm
2:53 AM 71.1 °F - 63.0 °F 75% 30.02 in 10.0 mi West 6.9 mph - N/A Thunderstorm Thunderstorm
3:36 AM 66.9 °F - 63.0 °F 87% 30.08 in 2.0 mi SSW 11.5 mph 29.9 mph 0.12 in Rain , Thunderstorm Heavy Thunderstorms and Rain
3:40 AM 66.9 °F - 63.0 °F 87% 30.07 in 5.0 mi WSW 13.8 mph - 0.21 in Rain , Thunderstorm Thunderstorms and Rain
3:53 AM 66.9 °F - 63.0 °F 87% 30.04 in 6.0 mi West 10.4 mph - 0.28 in Rain , Thunderstorm Thunderstorms and Rain
4:53 AM 66.0 °F - 63.0 °F 90% 30.04 in 9.0 mi NW 6.9 mph - 0.06 in Rain , Thunderstorm Light Thunderstorms and Rain
5:53 AM 66.0 °F - 64.0 °F 93% 30.06 in 10.0 mi NNW 5.8 mph - 0.01 in Thunderstorm Thunderstorm
6:17 AM 66.9 °F - 64.0 °F 90% 30.09 in 10.0 mi NW 5.8 mph - N/A   Overcast
6:53 AM 66.9 °F - 64.0 °F 90% 30.06 in 10.0 mi NNW 6.9 mph - N/A   Overcast
7:53 AM 66.9 °F - 64.9 °F 93% 30.07 in 10.0 mi North 9.2 mph - N/A   Overcast
8:53 AM 70.0 °F - 64.9 °F 84% 30.08 in 10.0 mi North 9.2 mph - N/A   Overcast
9:53 AM 71.1 °F - 66.0 °F 84% 30.09 in 10.0 mi NNE 8.1 mph - N/A   Overcast
10:35 AM 73.0 °F - 66.9 °F 81% 30.11 in 10.0 mi NE 5.8 mph - N/A   Overcast
10:53 AM 75.0 °F - 66.9 °F 76% 30.09 in 10.0 mi East 6.9 mph - N/A   Overcast
11:53 AM 78.1 °F - 68.0 °F 71% 30.08 in 10.0 mi SE 15.0 mph 20.7 mph N/A   Overcast
12:53 PM 82.0 °F 84.1 °F 66.0 °F 58% 30.08 in 10.0 mi SE 21.9 mph 28.8 mph N/A   Overcast
1:53 PM 82.0 °F 83.8 °F 64.9 °F 56% 30.10 in 10.0 mi SSE 19.6 mph - N/A   Overcast
2:53 PM 80.1 °F 81.9 °F 64.9 °F 60% 30.10 in 10.0 mi South 16.1 mph 24.2 mph N/A   Overcast
3:53 PM 80.1 °F 81.9 °F 64.9 °F 60% 30.10 in 10.0 mi South 13.8 mph - N/A   Overcast
4:53 PM 79.0 °F - 64.9 °F 62% 30.10 in 10.0 mi South 10.4 mph - N/A   Overcast
5:53 PM 78.1 °F - 64.0 °F 62% 30.09 in 10.0 mi SSW 5.8 mph - N/A   Overcast
6:53 PM 78.1 °F - 64.0 °F 62% 30.08 in 10.0 mi South 8.1 mph - N/A   Overcast
7:53 PM 77.0 °F - 64.0 °F 64% 30.09 in 10.0 mi Calm Calm - N/A   Mostly Cloudy
8:53 PM 75.0 °F - 66.0 °F 73% 30.10 in 10.0 mi NNW 3.5 mph - N/A   Mostly Cloudy
9:53 PM 73.9 °F - 66.0 °F 76% 30.12 in 10.0 mi North 4.6 mph - N/A   Overcast
10:53 PM 75.0 °F - 66.9 °F 76% 30.14 in 10.0 mi Calm Calm - 0.00 in Rain Light Rain
11:53 PM 73.0 °F - 68.0 °F 84% 30.16 in 10.0 mi ENE 4.6 mph - 0.00 in   Overcast